HST
1 20580U 90037B   24160.04557392  .00009423  00000-0  44611-3 0  9999
2 20580  28.4697  46.3736 0002509 302.9327  57.1024 15.17631763675900
ISS (ZARYA)
1 25544U 98067A   24160.37815128  .00030115  00000-0  51415-3 0  9997
2 25544  51.6400 358.9306 0006060 294.2073 126.6068 15.51037239457181
CXO
1 25867U 99040B   24162.57397644  .00000404  00000-0  00000+0 0  9997
2 25867  41.0174 154.3466 8901905 296.0837 359.9966  0.37806988 25691